When you browse on this site, cookies collect data to enhance your experience and personalize the content and advertising you see.
Visit our Privacy Policy to learn more. By continuing to use the site, you agree to this use of cookies and data.
  • In Österreich
  • Länderverzeichnis
  • Für 7 Tage
  • Wassertemperatur
  • Satellitenkarten
  • Wetterkarte
  • News
  • Widgets
  • user-avatar
    Anmelden

    Stündliche Wetter Jerewan

    Heute, 21 April, Sonntag

    Zeit Temperatur Niederschläge Wind Luftdruck Luftfeuchtigkeit
    00:00 +7°C° 0.1 mm 2 m/S 687 mmHg 49%
    01:00 +7°C° 0.1 mm 2 m/S 687 mmHg 50%
    02:00 +7°C° 0.1 mm 2 m/S 687 mmHg 51%
    03:00 +7°C° 0 mm 2 m/S 686 mmHg 54%
    04:00 +7°C° 0.1 mm 2 m/S 687 mmHg 55%
    05:00 +7°C° 0.1 mm 2 m/S 687 mmHg 56%
    06:00 +7°C° 0.1 mm 2 m/S 687 mmHg 58%
    07:00 +8°C° 0.1 mm 2 m/S 687 mmHg 54%
    08:00 +9°C° 0.1 mm 2 m/S 687 mmHg 51%
    09:00 +10°C° 0.1 mm 2 m/S 687 mmHg 48%
    10:00 +12°C° 0 mm 2 m/S 687 mmHg 44%
    11:00 +13°C° 0 mm 2 m/S 686 mmHg 41%
    12:00 +15°C° 0 mm 2 m/S 686 mmHg 37%
    13:00 +14°C° 0.1 mm 3 m/S 686 mmHg 36%
    14:00 +16°C° 0.1 mm 3 m/S 686 mmHg 34%
    15:00 +16°C° 0.1 mm 3 m/S 685 mmHg 33%
    16:00 +16°C° 0.1 mm 3 m/S 686 mmHg 34%
    17:00 +14°C° 0.1 mm 4 m/S 686 mmHg 36%
    18:00 +13°C° 0.1 mm 4 m/S 686 mmHg 38%
    19:00 +12°C° 0.1 mm 4 m/S 686 mmHg 41%
    20:00 +11°C° 0.1 mm 4 m/S 687 mmHg 43%
    21:00 +10°C° 0.1 mm 4 m/S 687 mmHg 46%
    22:00 +10°C° 0.1 mm 3 m/S 687 mmHg 47%
    23:00 +9°C° 0.1 mm 3 m/S 687 mmHg 49%

    Morgen, 22 April, Montag

    Zeit Temperatur Niederschläge Wind Luftdruck Luftfeuchtigkeit
    00:00 +9°C° 0.1 mm 3 m/S 687 mmHg 50%
    01:00 +8°C° 0 mm 3 m/S 687 mmHg 51%
    02:00 +8°C° 0 mm 3 m/S 687 mmHg 51%
    03:00 +7°C° 0 mm 2 m/S 687 mmHg 52%
    04:00 +7°C° 0 mm 2 m/S 687 mmHg 52%
    05:00 +7°C° 0 mm 2 m/S 687 mmHg 52%
    06:00 +7°C° 0 mm 2 m/S 687 mmHg 53%
    07:00 +8°C° 0 mm 2 m/S 687 mmHg 48%
    08:00 +9°C° 0 mm 2 m/S 687 mmHg 43%
    09:00 +12°C° 0 mm 2 m/S 687 mmHg 39%
    10:00 +12°C° 0 mm 2 m/S 687 mmHg 37%
    11:00 +13°C° 0 mm 2 m/S 687 mmHg 35%
    12:00 +14°C° 0 mm 2 m/S 687 mmHg 33%
    13:00 +14°C° 0 mm 2 m/S 686 mmHg 33%
    14:00 +14°C° 0 mm 3 m/S 686 mmHg 32%
    15:00 +14°C° 0 mm 3 m/S 686 mmHg 32%
    16:00 +13°C° 0 mm 3 m/S 686 mmHg 33%
    17:00 +13°C° 0 mm 3 m/S 687 mmHg 35%
    18:00 +12°C° 0 mm 3 m/S 687 mmHg 36%
    19:00 +11°C° 0 mm 3 m/S 688 mmHg 39%
    20:00 +10°C° 0 mm 2 m/S 689 mmHg 42%
    21:00 +9°C° 0 mm 2 m/S 689 mmHg 45%
    22:00 +8°C° 0 mm 2 m/S 690 mmHg 47%
    23:00 +9°C° 0 mm 1 m/S 690 mmHg 48%

    übermorgen, 23 April, Dienstag

    Zeit Temperatur Niederschläge Wind Luftdruck Luftfeuchtigkeit
    00:00 +8°C° 0 mm 1 m/S 691 mmHg 50%
    01:00 +8°C° 0 mm 1 m/S 691 mmHg 52%
    02:00 +6°C° 0 mm 2 m/S 691 mmHg 53%
    03:00 +6°C° 0 mm 2 m/S 691 mmHg 55%
    04:00 +6°C° 0 mm 2 m/S 691 mmHg 56%
    05:00 +7°C° 0 mm 1 m/S 692 mmHg 56%
    06:00 +7°C° 0 mm 1 m/S 692 mmHg 57%
    07:00 +7°C° 0 mm 2 m/S 692 mmHg 52%
    08:00 +8°C° 0 mm 2 m/S 693 mmHg 46%
    09:00 +10°C° 0 mm 2 m/S 693 mmHg 41%
    10:00 +12°C° 0 mm 2 m/S 693 mmHg 39%
    11:00 +13°C° 0 mm 2 m/S 693 mmHg 37%
    12:00 +14°C° 0 mm 2 m/S 693 mmHg 34%
    13:00 +14°C° 0 mm 2 m/S 692 mmHg 33%
    14:00 +15°C° 0 mm 2 m/S 692 mmHg 32%
    15:00 +15°C° 0 mm 2 m/S 692 mmHg 32%
    16:00 +15°C° 0 mm 1 m/S 692 mmHg 33%
    17:00 +14°C° 0 mm 1 m/S 693 mmHg 34%
    18:00 +14°C° 0 mm 1 m/S 693 mmHg 35%
    19:00 +13°C° 0 mm 1 m/S 693 mmHg 38%
    20:00 +12°C° 0 mm 1 m/S 694 mmHg 41%
    21:00 +11°C° 0 mm 1 m/S 694 mmHg 44%
    22:00 +10°C° 0 mm 1 m/S 695 mmHg 46%
    23:00 +10°C° 0 mm 1 m/S 695 mmHg 48%

    24 April, Mittwoch

    Zeit Temperatur Niederschläge Wind Luftdruck Luftfeuchtigkeit
    00:00 +9°C° 0 mm 1 m/S 695 mmHg 49%
    01:00 +9°C° 0 mm 1 m/S 695 mmHg 52%
    02:00 +8°C° 0 mm 1 m/S 695 mmHg 54%
    03:00 +8°C° 0 mm 1 m/S 695 mmHg 57%
    04:00 +8°C° 0 mm 1 m/S 696 mmHg 58%
    05:00 +8°C° 0 mm 1 m/S 696 mmHg 60%
    06:00 +8°C° 0 mm 1 m/S 696 mmHg 61%
    07:00 +9°C° 0 mm 1 m/S 696 mmHg 56%
    08:00 +10°C° 0 mm 1 m/S 696 mmHg 52%
    09:00 +10°C° 0 mm 2 m/S 696 mmHg 47%
    10:00 +12°C° 0 mm 2 m/S 695 mmHg 43%
    11:00 +13°C° 0 mm 2 m/S 695 mmHg 39%
    12:00 +15°C° 0 mm 2 m/S 695 mmHg 35%
    13:00 +15°C° 0 mm 2 m/S 694 mmHg 33%
    14:00 +16°C° 0 mm 2 m/S 694 mmHg 31%
    15:00 +16°C° 0 mm 2 m/S 693 mmHg 29%
    16:00 +16°C° 0 mm 1 m/S 693 mmHg 30%
    17:00 +16°C° 0 mm 1 m/S 693 mmHg 30%
    18:00 +15°C° 0 mm 1 m/S 693 mmHg 30%
    19:00 +14°C° 0 mm 1 m/S 694 mmHg 34%
    20:00 +13°C° 0 mm 1 m/S 694 mmHg 38%
    21:00 +10°C° 0 mm 2 m/S 695 mmHg 41%
    22:00 +11°C° 0 mm 1 m/S 695 mmHg 44%
    23:00 +10°C° 0 mm 1 m/S 695 mmHg 48%

    25 April, Donnerstag

    Zeit Temperatur Niederschläge Wind Luftdruck Luftfeuchtigkeit
    00:00 +9°C° 0 mm 0 m/S 695 mmHg 51%
    01:00 +9°C° 0 mm 1 m/S 695 mmHg 52%
    02:00 +9°C° 0 mm 1 m/S 695 mmHg 54%
    03:00 +8°C° 0 mm 1 m/S 695 mmHg 56%
    04:00 +8°C° 0 mm 1 m/S 695 mmHg 57%
    05:00 +8°C° 0 mm 1 m/S 696 mmHg 58%
    06:00 +8°C° 0 mm 1 m/S 696 mmHg 59%
    07:00 +9°C° 0 mm 2 m/S 696 mmHg 53%
    08:00 +10°C° 0 mm 2 m/S 695 mmHg 47%
    09:00 +13°C° 0 mm 2 m/S 695 mmHg 41%
    10:00 +14°C° 0 mm 2 m/S 695 mmHg 38%
    11:00 +15°C° 0 mm 2 m/S 695 mmHg 34%
    12:00 +16°C° 0 mm 2 m/S 695 mmHg 31%
    13:00 +17°C° 0 mm 2 m/S 694 mmHg 30%
    14:00 +17°C° 0 mm 2 m/S 694 mmHg 29%
    15:00 +18°C° 0 mm 2 m/S 694 mmHg 28%
    16:00 +19°C° 0 mm 1 m/S 694 mmHg 30%
    17:00 +18°C° 0 mm 1 m/S 694 mmHg 32%
    18:00 +18°C° 0 mm 1 m/S 694 mmHg 33%
    19:00 +15°C° 0 mm 1 m/S 695 mmHg 37%
    20:00 +14°C° 0 mm 1 m/S 695 mmHg 40%
    21:00 +12°C° 0 mm 1 m/S 695 mmHg 43%
    22:00 +12°C° 0 mm 1 m/S 695 mmHg 45%
    23:00 +11°C° 0 mm 1 m/S 695 mmHg 47%

    26 April, Freitag

    Zeit Temperatur Niederschläge Wind Luftdruck Luftfeuchtigkeit
    00:00 +10°C° 0 mm 1 m/S 695 mmHg 49%
    01:00 +10°C° 0 mm 1 m/S 695 mmHg 51%
    02:00 +9°C° 0 mm 1 m/S 695 mmHg 52%
    03:00 +9°C° 0 mm 1 m/S 695 mmHg 54%
    04:00 +9°C° 0 mm 1 m/S 695 mmHg 54%
    05:00 +9°C° 0 mm 1 m/S 695 mmHg 54%
    06:00 +9°C° 0 mm 1 m/S 696 mmHg 54%
    07:00 +11°C° 0 mm 1 m/S 695 mmHg 50%
    08:00 +12°C° 0 mm 1 m/S 695 mmHg 45%
    09:00 +14°C° 0 mm 1 m/S 695 mmHg 40%
    10:00 +15°C° 0 mm 1 m/S 695 mmHg 37%
    11:00 +16°C° 0 mm 1 m/S 694 mmHg 34%
    12:00 +18°C° 0 mm 1 m/S 694 mmHg 31%
    13:00 +18°C° 0 mm 2 m/S 694 mmHg 30%
    14:00 +18°C° 0 mm 2 m/S 694 mmHg 28%
    15:00 +19°C° 0 mm 2 m/S 693 mmHg 27%
    16:00 +19°C° 0 mm 1 m/S 693 mmHg 28%
    17:00 +19°C° 0 mm 1 m/S 693 mmHg 29%
    18:00 +18°C° 0 mm 1 m/S 693 mmHg 30%
    19:00 +16°C° 0 mm 1 m/S 694 mmHg 34%
    20:00 +14°C° 0 mm 1 m/S 694 mmHg 37%
    21:00 +12°C° 0 mm 1 m/S 694 mmHg 40%
    22:00 +12°C° 0 mm 1 m/S 694 mmHg 43%
    23:00 +11°C° 0 mm 1 m/S 694 mmHg 45%
    Mehr zeigen